| time (UTC) | temp C | wind direction | speed KPH | gust KPH | rain 1hr cm | rain 24hr cm | rain mn cm | humidity % | barometer mb |
| 20260831103021 | 7 | 161 | 0.0 | 0.0 | 0.00 | 0.00 | 0.00 | 75 | 1016.1 |
| 20260831101519 | 7 | 161 | 0.0 | 0.0 | 0.00 | 0.00 | 0.00 | 75 | 1015.8 |
| 20260831100014 | 8 | 161 | 0.0 | 0.0 | 0.00 | 0.00 | 0.00 | 73 | 1015.7 |
| 20260831094510 | 8 | 161 | 0.0 | 0.0 | 0.00 | 0.00 | 0.00 | 70 | 1015.6 |
| 20260831093006 | 10 | 161 | 0.0 | 0.0 | 0.00 | 0.00 | 0.00 | 68 | 1015.7 |
| 20260831091505 | 11 | 161 | 0.0 | 0.0 | 0.00 | 0.00 | 0.00 | 63 | 1015.6 |
| 20260831090105 | 12 | 161 | 0.0 | 1.6 | 0.00 | 0.00 | 0.00 | 62 | 1015.6 |
| 20260831084607 | 12 | 161 | 0.0 | 1.6 | 0.00 | 0.00 | 0.00 | 62 | 1015.6 |
| 20260831083100 | 12 | 161 | 0.0 | 1.6 | 0.00 | 0.00 | 0.00 | 62 | 1015.6 |
| 20260831081558 | 12 | 161 | 0.0 | 0.0 | 0.00 | 0.00 | 0.00 | 62 | 1015.6 |
| 20260831080057 | 12 | 161 | 0.0 | 1.6 | 0.00 | 0.00 | 0.00 | 63 | 1015.5 |
| 20260831074556 | 12 | 161 | 0.0 | 0.0 | 0.00 | 0.00 | 0.00 | 62 | 1015.4 |
| 20260831073054 | 12 | 161 | 0.0 | 0.0 | 0.00 | 0.00 | 0.00 | 61 | 1015.6 |
| 20260831071555 | 12 | 161 | 0.0 | 0.0 | 0.00 | 0.00 | 0.00 | 58 | 1015.3 |
| 20260831070103 | 12 | 161 | 0.0 | 1.6 | 0.00 | 0.00 | 0.00 | 60 | 1015.3 |
| 20260831064548 | 12 | 161 | 0.0 | 3.2 | 0.00 | 0.00 | 0.00 | 57 | 1015.4 |
| 20260831063051 | 12 | 161 | 0.0 | 0.0 | 0.00 | 0.00 | 0.00 | 59 | 1015.5 |
| 20260831061546 | 13 | 161 | 0.0 | 0.0 | 0.00 | 0.00 | 0.00 | 58 | 1015.5 |
| 20260831060042 | 13 | 161 | 0.0 | 1.6 | 0.00 | 0.00 | 0.00 | 57 | 1015.5 |
| 20260831054545 | 13 | 161 | 0.0 | 0.0 | 0.00 | 0.00 | 0.00 | 56 | 1015.5 |
| 20260831053055 | 13 | 161 | 0.0 | 1.6 | 0.00 | 0.00 | 0.00 | 55 | 1015.5 |
| 20260831051544 | 13 | 161 | 0.0 | 1.6 | 0.00 | 0.00 | 0.00 | 56 | 1015.5 |
| 20260831050045 | 13 | 161 | 0.0 | 1.6 | 0.00 | 0.00 | 0.00 | 55 | 1015.5 |
| 20260831044540 | 13 | 161 | 0.0 | 4.8 | 0.00 | 0.00 | 0.00 | 54 | 1015.5 |
| 20260831043043 | 13 | 161 | 3.2 | 9.7 | 0.00 | 0.00 | 0.00 | 53 | 1015.6 |
| 20260831041540 | 13 | 161 | 6.4 | 14.5 | 0.00 | 0.00 | 0.00 | 53 | 1015.3 |
| 20260831040038 | 13 | 161 | 8.0 | 14.5 | 0.00 | 0.00 | 0.00 | 54 | 1015.3 |
| 20260831034541 | 13 | 161 | 6.4 | 14.5 | 0.00 | 0.00 | 0.00 | 54 | 1015.2 |
| 20260831033058 | 13 | 161 | 6.4 | 9.7 | 0.00 | 0.00 | 0.00 | 53 | 1015.1 |
| 20260831031536 | 14 | 161 | 4.8 | 11.3 | 0.00 | 0.00 | 0.00 | 52 | 1014.8 |
| 20260831030034 | 14 | 161 | 4.8 | 8.0 | 0.00 | 0.00 | 0.00 | 53 | 1014.5 |
| 20260831024534 | 14 | 161 | 0.0 | 3.2 | 0.00 | 0.00 | 0.00 | 53 | 1014.6 |
| 20260831023034 | 15 | 161 | 0.0 | 0.0 | 0.00 | 0.00 | 0.00 | 52 | 1014.4 |
| 20260831021533 | 15 | 161 | 0.0 | 0.0 | 0.00 | 0.00 | 0.00 | 52 | 1014.3 |
| 20260831020032 | 16 | 161 | 0.0 | 1.6 | 0.00 | 0.00 | 0.00 | 48 | 1014.3 |
| 20260831014532 | 18 | 161 | 0.0 | 1.6 | 0.00 | 0.00 | 0.00 | 42 | 1014.3 |
| 20260831013032 | 18 | 161 | 0.0 | 3.2 | 0.00 | 0.00 | 0.00 | 41 | 1014.3 |
| 20260831011541 | 19 | 161 | 0.0 | 6.4 | 0.00 | 0.00 | 0.00 | 39 | 1014.4 |
| 20260831010030 | 20 | 161 | 0.0 | 3.2 | 0.00 | 0.00 | 0.00 | 38 | 1014.5 |
| 20260831004530 | 20 | 161 | 0.0 | 4.8 | 0.00 | 0.00 | 0.00 | 38 | 1014.4 |
| 20260831003035 | 19 | 161 | 0.0 | 14.5 | 0.00 | 0.00 | 0.00 | 39 | 1014.5 |
| 20260831001529 | 19 | 161 | 1.6 | 6.4 | 0.00 | 0.00 | 0.00 | 39 | 1014.4 |
| 20260831000035 | 18 | 161 | 1.6 | 6.4 | 0.00 | 0.00 | 0.00 | 41 | 1014.4 |
| 20260830234536 | 18 | 161 | 3.2 | 8.0 | 0.00 | 0.00 | 0.00 | 44 | 1014.5 |
| 20260830233027 | 18 | 161 | 1.6 | 8.0 | 0.00 | 0.00 | 0.00 | 44 | 1014.8 |
| 20260830231527 | 18 | 161 | 3.2 | 9.7 | 0.00 | 0.00 | 0.00 | 43 | 1014.9 |
| 20260830230025 | 18 | 161 | 1.6 | 6.4 | 0.00 | 0.00 | 0.00 | 41 | 1014.9 |
| 20260830224525 | 20 | 161 | 0.0 | 8.0 | 0.00 | 0.00 | 0.00 | 38 | 1015.0 |
| 20260830223024 | 18 | 161 | 3.2 | 8.0 | 0.00 | 0.00 | 0.00 | 39 | 1015.2 |
| 20260830221535 | 18 | 161 | 1.6 | 8.0 | 0.00 | 0.00 | 0.00 | 42 | 1015.2 |
| 20260830220022 | 18 | 161 | 0.0 | 4.8 | 0.00 | 0.00 | 0.00 | 42 | 1015.3 |
| 20260830214522 | 18 | 161 | 0.0 | 8.0 | 0.00 | 0.00 | 0.00 | 41 | 1015.4 |
| 20260830213021 | 18 | 161 | 1.6 | 19.3 | 0.00 | 0.00 | 0.00 | 39 | 1015.4 |
| 20260830211520 | 20 | 161 | 1.6 | 14.5 | 0.00 | 0.00 | 0.00 | 38 | 1015.4 |
| 20260830210016 | 19 | 161 | 1.6 | 16.1 | 0.00 | 0.00 | 0.00 | 39 | 1015.3 |
| 20260830204518 | 18 | 161 | 3.2 | 14.5 | 0.00 | 0.00 | 0.00 | 40 | 1015.2 |
| 20260830203014 | 18 | 161 | 3.2 | 12.9 | 0.00 | 0.00 | 0.00 | 41 | 1015.0 |
| 20260830201513 | 18 | 161 | 0.0 | 9.7 | 0.00 | 0.00 | 0.00 | 40 | 1015.0 |
| 20260830200011 | 19 | 161 | 3.2 | 14.5 | 0.00 | 0.00 | 0.00 | 39 | 1014.9 |
| 20260830194509 | 18 | 161 | 4.8 | 17.7 | 0.00 | 0.00 | 0.00 | 39 | 1015.0 |
| 20260830193007 | 17 | 161 | 1.6 | 16.1 | 0.00 | 0.00 | 0.00 | 44 | 1014.7 |
| 20260830191513 | 17 | 161 | 1.6 | 12.9 | 0.00 | 0.00 | 0.00 | 43 | 1014.8 |
| 20260830190004 | 17 | 161 | 1.6 | 8.0 | 0.00 | 0.00 | 0.00 | 46 | 1014.7 |
| 20260830184502 | 16 | 161 | 1.6 | 9.7 | 0.00 | 0.00 | 0.00 | 48 | 1014.8 |
| 20260830183058 | 15 | 161 | 1.6 | 9.7 | 0.00 | 0.00 | 0.00 | 49 | 1014.7 |
| 20260830181557 | 15 | 161 | 0.0 | 11.3 | 0.00 | 0.00 | 0.00 | 51 | 1014.6 |
| 20260830180100 | 15 | 161 | 0.0 | 6.4 | 0.00 | 0.00 | 0.00 | 54 | 1014.5 |
| 20260830174602 | 15 | 161 | 0.0 | 3.2 | 0.00 | 0.00 | 0.00 | 54 | 1014.3 |
| 20260830173114 | 13 | 161 | 0.0 | 1.6 | 0.00 | 0.00 | 0.00 | 60 | 1014.3 |
| 20260830171557 | 13 | 161 | 0.0 | 3.2 | 0.00 | 0.00 | 0.00 | 62 | 1014.2 |
| 20260830170050 | 13 | 161 | 0.0 | 3.2 | 0.00 | 0.00 | 0.00 | 61 | 1014.0 |
| 20260830164548 | 13 | 161 | 1.6 | 4.8 | 0.00 | 0.00 | 0.00 | 61 | 1014.0 |
| 20260830163046 | 13 | 161 | 1.6 | 6.4 | 0.00 | 0.00 | 0.00 | 62 | 1013.8 |
| 20260830161600 | 13 | 161 | 1.6 | 4.8 | 0.00 | 0.00 | 0.00 | 60 | 1013.4 |
| 20260830160043 | 13 | 161 | 0.0 | 9.7 | 0.00 | 0.00 | 0.00 | 54 | 1013.4 |
| 20260830154543 | 13 | 161 | 0.0 | 12.9 | 0.00 | 0.00 | 0.00 | 55 | 1013.2 |
| 20260830153042 | 13 | 161 | 0.0 | 9.7 | 0.00 | 0.00 | 0.00 | 57 | 1013.3 |
| 20260830151554 | 13 | 161 | 3.2 | 11.3 | 0.00 | 0.00 | 0.00 | 61 | 1013.2 |
| 20260830150041 | 13 | 161 | 4.8 | 14.5 | 0.00 | 0.00 | 0.00 | 60 | 1013.2 |
| 20260830144550 | 12 | 161 | 0.0 | 12.9 | 0.00 | 0.00 | 0.00 | 61 | 1013.2 |
| 20260830143040 | 12 | 161 | 1.6 | 11.3 | 0.00 | 0.00 | 0.00 | 62 | 1013.2 |
| 20260830141539 | 12 | 161 | 8.0 | 16.1 | 0.00 | 0.00 | 0.00 | 63 | 1013.0 |
| 20260830140038 | 12 | 161 | 6.4 | 12.9 | 0.00 | 0.00 | 0.00 | 63 | 1013.1 |
| 20260830134544 | 12 | 161 | 3.2 | 12.9 | 0.00 | 0.00 | 0.00 | 64 | 1013.1 |
| 20260830133037 | 11 | 161 | 8.0 | 12.9 | 0.00 | 0.00 | 0.00 | 66 | 1013.1 |
| 20260830131535 | 11 | 161 | 4.8 | 14.5 | 0.00 | 0.00 | 0.00 | 66 | 1013.2 |
| 20260830130031 | 12 | 161 | 6.4 | 12.9 | 0.00 | 0.00 | 0.00 | 63 | 1013.1 |
| 20260830124536 | 12 | 161 | 4.8 | 9.7 | 0.00 | 0.00 | 0.00 | 62 | 1013.1 |
| 20260830123029 | 12 | 161 | 3.2 | 12.9 | 0.00 | 0.00 | 0.00 | 62 | 1013.1 |
| 20260830121527 | 12 | 161 | 1.6 | 14.5 | 0.00 | 0.00 | 0.00 | 62 | 1013.3 |
| 20260830120025 | 12 | 161 | 3.2 | 20.9 | 0.00 | 0.00 | 0.00 | 62 | 1013.3 |
| 20260830114523 | 12 | 162 | 6.4 | 14.5 | 0.00 | 0.00 | 0.00 | 61 | 1013.3 |
| 20260830113023 | 12 | 162 | 6.4 | 14.5 | 0.00 | 0.00 | 0.00 | 60 | 1013.4 |
| 20260830111520 | 12 | 161 | 4.8 | 16.1 | 0.00 | 0.00 | 0.00 | 59 | 1013.3 |
| 20260830110019 | 12 | 162 | 0.0 | 3.2 | 0.00 | 0.00 | 0.00 | 57 | 1013.4 |
| 20260830104517 | 12 | 162 | 0.0 | 1.6 | 0.00 | 0.00 | 0.00 | 56 | 1013.4 |